EDT,Max TemperatureF,Mean TemperatureF,Min TemperatureF,Max Dew PointF,MeanDew PointF,Min DewpointF,Max Humidity, Mean Humidity, Min Humidity, Max Sea Level PressureIn, Mean Sea Level PressureIn, Min Sea Level PressureIn, Max VisibilityMiles, Mean VisibilityMiles, Min VisibilityMiles, Max Wind SpeedMPH, Mean Wind SpeedMPH, Max Gust SpeedMPH,PrecipitationIn, CloudCover, Events, WindDirDegrees
2012-3-1,71,54,37,52,36,7,87,53,9,29.96,29.91,29.86,10,10,10,15,5,20,0.20,1,Rain,216
2012-3-2,64,50,35,57,46,32,94,79,71,29.94,29.85,29.72,10,9,1,12,2,25,0.21,6,Rain,122
2012-3-3,55,48,42,55,32,7,100,59,17,29.83,29.76,29.61,10,10,5,21,6,28,0.56,4,Rain,232
2012-3-4,42,37,32,21,17,10,64,43,31,30.00,29.88,29.76,10,10,10,23,8,34,0.07,3,Snow,246
2012-3-5,44,38,33,27,17,9,75,39,23,30.37,30.13,29.88,10,10,10,25,9,38,0.01,4,Rain,243
2012-3-6,60,40,21,27,18,3,93,57,11,30.57,30.51,30.45,10,10,10,12,1,21,0.00,0,,165
2012-3-7,59,44,30,43,35,27,87,68,48,30.57,30.52,30.42,10,10,10,9,2,18,0.01,7,,140
2012-3-8,66,55,44,50,45,43,93,65,45,30.41,30.28,30.12,10,10,7,10,5,22,0.00,7,Rain,132
2012-3-9,55,47,35,50,34,18,94,59,25,30.34,30.24,30.11,10,10,3,15,5,20,0.02,4,Rain,244
2012-3-10,64,45,26,28,23,16,93,56,16,30.44,30.38,30.33,10,10,10,7,1,,0.01,0,,151
2012-3-11,62,44,26,37,29,19,93,61,20,30.53,30.46,30.37,10,10,10,12,2,17,0.01,0,,137
2012-3-12,57,52,46,50,45,39,94,76,63,30.41,30.37,30.30,10,9,5,9,3,,0.00,8,Rain,126
2012-3-13,73,62,50,55,49,37,100,74,27,30.28,30.24,30.16,10,8,4,8,1,,0.03,6,Rain,237
2012-3-14,77,56,35,50,41,34,100,67,23,30.33,30.27,30.19,10,8,1,6,0,,0.01,0,,161
2012-3-15,77,58,39,50,43,37,100,73,29,30.36,30.30,30.22,10,9,7,7,1,17,0.00,0,,146
2012-3-16,73,60,46,52,49,45,100,74,38,30.36,30.25,30.16,10,7,0,13,4,22,0.01,6,Fog-Rain,235
2012-3-17,71,60,48,54,50,46,100,76,41,30.32,30.26,30.19,10,10,10,10,1,,0.01,6,Rain,231
2012-3-18,75,63,51,55,52,46,100,78,36,30.35,30.27,30.19,10,9,0,9,1,9,0.02,5,Fog-Rain,172
2012-3-19,78,61,44,59,47,43,100,70,28,30.28,30.22,30.12,10,6,0,9,0,,0.02,2,Fog,124
2012-3-20,78,62,46,54,48,43,100,62,28,30.26,30.20,30.14,10,8,2,14,1,21,0.01,1,,215
2012-3-21,73,60,46,54,48,45,100,68,36,30.30,30.25,30.20,10,9,4,12,2,17,0.01,2,,166
2012-3-22,73,60,48,55,52,46,100,78,50,30.29,30.25,30.18,10,10,4,9,1,,0.00,6,Rain,187
2012-3-23,68,62,55,61,56,52,100,86,64,30.21,30.12,29.99,10,8,2,12,1,,0.01,7,Rain,130
2012-3-24,66,58,51,54,47,34,100,74,30,29.99,29.90,29.81,10,6,0,17,2,26,0.01,7,Fog-Rain,242
2012-3-25,62,55,48,45,42,41,82,65,45,29.90,29.87,29.83,10,10,10,14,6,20,0.03,7,Rain,240
2012-3-26,75,60,44,46,40,32,93,50,22,30.09,30.02,29.95,10,10,7,15,5,20,0.02,1,,242
2012-3-27,71,54,37,45,38,34,100,65,25,30.27,30.20,30.14,10,9,5,12,2,16,0.01,0,,132
2012-3-28,73,57,41,48,43,37,100,63,38,30.26,30.16,30.03,10,10,3,16,2,24,0.01,2,,253
2012-3-29,77,62,46,54,47,41,100,64,29,30.05,30.01,29.94,10,10,7,12,2,23,0.00,3,,237
2012-3-30,71,56,42,57,48,41,100,81,46,30.06,30.01,29.94,10,7,2,9,1,21,0.02,4,Rain,136
2012-3-31,73,63,53,57,51,43,100,74,35,29.93,29.89,29.82,10,6,0,15,2,20,0.01,5,Fog-Rain,234